Погода в Платаниасе

Греция     35°31′01″N   23°54′24″E
темп.,
°C
ветер,
м/с
пор.,
м/с
влажн.,
%
обл.,
%
осадки,
мм/ч
давл.,
гПа
погр.,
м
27 февраля, сб
сб2723:00+10ююв11780 0.0 102398
02:00+9ююз12720 0.0 102254
05:00+9ююз22660 0.0 102178
08:00+10ю22710 0.0 102165
11:00+14св11560 0.0 1021405
14:00+15с22550 0.0 1020502
17:00+14сз23650 0.0 1019386
20:00+11юз23780 0.0 1019208
28 февраля, вс
вс2823:00+11юз33730 0.0 1020123
02:00+11юз23660 0.0 1019113
05:00+10ю22650 0.0 101950
08:00+12ююв12560 0.0 102040
11:00+15ссв22590 0.0 1021593
14:00+15ссв457410 0.0 1021953
17:00+13св458458 0.3 1021653
20:00+11всв468251 0.4 1023609
1 марта, пн
пн123:00+11в457934 0.1 1024670
02:00+11всв577835 0.1 1024852
05:00+10всв467239 0.1 1024788
08:00+10всв357020 0.1 1024870
11:00+11всв45600 0.0 10251074
14:00+12св55590 0.0 10241022
17:00+10св45670 0.0 1024941
20:00+9в45736 0.0 1025564
2 марта, вт
вт223:00+9всв467613 0.0 1026702
02:00+10св577142 0.1 10261144
05:00+9св467291 0.1 1025682
08:00+9ссв797694 0.7 10261208
11:00+9ссв697484 0.6 10271250
14:00+9ссв7107692 1.3 10271247
17:00+8ссв6977100 0.7 10271239
20:00+8ссв81178100 1.6 10281323
3 марта, ср
ср323:00+8ссв71076100 0.6 10281243
02:00+9ссв6107799 1.1 10271220
05:00+9ссв61076100 0.3 10271202
08:00+9ссв7107794 0.6 10271256
11:00+10ссв697795 0.3 10271188
14:00+10св467297 0.4 10271141
17:00+10всв357171 0.0 10261014
20:00+10всв367872 0.0 1026707